This demonstration page uses our WeatherBlox Daily Observations layout. Learn more.

Left ArrowRight Arrow

Hourly Observations for September 22, 2022

Temp ( °F °C ) Dew Point ( °F °C ) Humidity (%) Winds ( mph kmh ) Pressure ( in mb ) Visibility ( mi km ) Precip ( " mm )
12:53 am 00:53 Mostly Cloudy 79 26.1 68 20 69 69 W 6 9 29.92 1013 10 16 0.00 0.00
1:53 am 01:53 Cloudy 78 25.6 69 20.6 74 74 WSW 8 13 29.91 1013 10 16 0.00 0.00
2:53 am 02:53 Cloudy 78 25.6 69 20.6 74 74 SW 9 15 29.90 1013 10 16 0.00 0.00
3:53 am 03:53 Cloudy 78 25.6 69 20.6 74 74 SSE 5 7 29.88 1012 10 16 0.00 0.00
4:53 am 04:53 Cloudy 78 25.6 68 20 71 71 ENE 3 6 29.89 1012 10 16 0.00 0.00
5:53 am 05:53 Cloudy 79 26.1 67 19.4 67 67 Calm 29.90 1012 10 16 0.00 0.00
6:53 am 06:53 Partly Cloudy 79 26.1 65 18.3 62 62 Calm 29.91 1013 10 16 0.00 0.00
7:53 am 07:53 Partly Cloudy 81 27.2 66 18.9 61 61 WSW 5 7 29.91 1013 10 16 0.00 0.00
8:53 am 08:53 Mostly Sunny 82 27.8 68 20 63 63 SSW 7 11 29.92 1013 10 16 0.00 0.00
9:53 am 09:53 Partly Cloudy 83 28.3 70 21.1 65 65 SW 9 15 29.92 1013 10 16 0.00 0.00
10:53 am 10:53 Mostly Sunny 84 28.9 70 21.1 63 63 SSW 10 17 29.91 1013 10 16 0.00 0.00
11:53 am 11:53 Partly Cloudy 84 28.9 71 21.7 65 65 SW 13 20 29.90 1013 10 16 0.00 0.00
12:53 pm 12:53 Partly Cloudy 87 30.6 70 21.1 57 57 SW 12 19 29.88 1012 10 16 0.00 0.00
1:53 pm 13:53 Mostly Cloudy 85 29.4 70 21.1 61 61 WSW 13 20 29.87 1012 10 16 0.00 0.00
2:53 pm 14:53 Cloudy 85 29.4 71 21.7 63 63 SW 10 17 29.86 1011 10 16 0.00 0.00
3:53 pm 15:53 Mostly Cloudy 84 28.9 71 21.7 65 65 WSW 9 15 29.87 1012 10 16 0.00 0.00
4:53 pm 16:53 Mostly Cloudy 82 27.8 70 21.1 67 67 WSW 8 13 29.88 1012 10 16 0.00 0.00
5:53 pm 17:53 Mostly Cloudy 82 27.8 72 22.2 72 72 W 7 11 29.89 1012 10 16 0.00 0.00
6:53 pm 18:53 Mostly Cloudy 81 27.2 72 22.2 74 74 Calm 29.91 1013 10 16 0.00 0.00
7:53 pm 19:53 Cloudy 81 27.2 71 21.7 72 72 N 3 6 29.92 1013 10 16 0.00 0.00
8:53 pm 20:53 Cloudy 80 26.7 72 22.2 76 76 N 8 13 29.94 1014 10 16 0.00 0.00
9:14 pm 21:14 Cloudy 79 26.1 72 22.2 79 79 NE 10 17 29.96 1014 10 16 0.00 0.00
9:53 pm 21:53 Cloudy 80 26.7 72 22.2 76 76 NE 8 13 29.95 1014 10 16 0.00 0.00
10:53 pm 22:53 Cloudy 81 27.2 71 21.7 72 72 WNW 6 9 29.95 1014 10 16 0.00 0.00
11:28 pm 23:28 Cloudy 81 27.2 72 22.2 74 74 W 8 13 29.95 1014 10 16 0.00 0.00
11:53 pm 23:53 Cloudy 81 27.2 72 22.2 74 74 WSW 8 13 29.94 1014 10 16 0.00 0.00

Powered by AerisWeather